Fairchild AFB, WA

1:31 PM PST on February 25, 2017 (GMT -0800)
Fairchild Air Force Base

Weather History for KSKA - December, 2012

Change the Weather History Date:

Saturday, December 1, 2012

  Actual Average Record
Temperature  
Mean Temperature 42 °F -  
Max Temperature 46 °F 34 °F 46 °F (2012)
Min Temperature 37 °F 26 °F 8 °F (2006)
Degree Days  
Heating Degree Days 24    
Moisture  
Dew Point 41 °F    
Average Humidity 92    
Maximum Humidity 100    
Minimum Humidity 57    
Precipitation  
Precipitation 0.03 in - - ()
Sea Level Pressure  
Sea Level Pressure 29.62 in    
Wind  
Wind Speed 12 mph (South)    
Max Wind Speed 24 mph    
Max Gust Speed 37 mph    
Visibility 10 miles    
Events Rain    
Averages and records for this station are not official NWS values.
T = Trace of Precipitation, MM = Missing Value Source: NWS Daily Summary

Daily Weather History Graph

Daily Weather History Graph

Search for Another Location

Airport or City:

Trip Planner

Search our weather history database for the weather conditions in past years. The results will help you decide how hot, cold, wet, or windy it might be!

Date:

Astronomy

Dec. 01, 2012 Rise Set
Actual Time 7:18 AM PST 4:00 PM PST
Civil Twilight 6:43 AM PST 4:36 PM PST
Nautical Twilight 6:04 AM PST 5:14 PM PST
Astronomical Twilight 5:27 AM PST 5:51 PM PST
Moon 6:59 PM PST (12/1) 9:31 AM PST (12/1)
Length of Visible Light 9h 52m
Length of Day
8h 42m
Waning Gibbous, 91% of the Moon is Illuminated
Dec 1
Waning Gibbous
Dec 6
Last Quarter
Dec 13
New
Dec 19
First Quarter
Dec 28
Full

Hourly Weather History & Observations

Time (PST) Temp. Windchill Dew Point Humidity Pressure Visibility Wind Dir Wind Speed Gust Speed Precip Events Conditions
12:07 AM 42.8 °F 38.0 °F 42.8 °F 100% 29.58 in 10.0 mi SSE 8.1 mph - N/A Rain Light Rain
12:27 AM 44.6 °F 41.4 °F 44.6 °F 100% 29.60 in 8.0 mi SW 5.8 mph - N/A Rain Light Rain
12:37 AM 44.6 °F 42.2 °F 44.6 °F 100% 29.58 in 10.0 mi SSE 4.6 mph - N/A Rain Light Rain
12:58 AM 43.3 °F 37.7 °F 43.3 °F 100% 29.60 in 10.0 mi SSE 10.4 mph - 0.01 in Rain Light Rain
1:05 AM 42.8 °F 37.5 °F 42.8 °F 100% 29.58 in 10.0 mi SE 9.2 mph - N/A   Mostly Cloudy
1:58 AM 43.3 °F 40.7 °F 43.3 °F 100% 29.58 in 10.0 mi Variable 4.6 mph - 0.00 in   Scattered Clouds
2:58 AM 43.2 °F 39.0 °F 43.2 °F 100% 29.59 in 10.0 mi SSE 6.9 mph - N/A   Mostly Cloudy
3:16 AM 42.8 °F 38.0 °F 42.8 °F 100% 29.56 in 10.0 mi SSE 8.1 mph - N/A Rain Light Rain
3:58 AM 44.1 °F 37.7 °F 44.1 °F 100% 29.57 in 10.0 mi SSE 12.7 mph - 0.00 in Rain Light Rain
4:01 AM 44.6 °F 38.4 °F 44.6 °F 100% 29.54 in 10.0 mi SSE 12.7 mph - N/A   Mostly Cloudy
4:58 AM 44.8 °F 38.7 °F 44.8 °F 100% 29.59 in 10.0 mi South 12.7 mph - 0.00 in   Mostly Cloudy
4:59 AM 44.6 °F 39.2 °F 44.6 °F 100% 29.56 in 10.0 mi South 10.4 mph - N/A Rain Light Rain
5:50 AM 44.6 °F 39.7 °F 44.6 °F 100% 29.56 in 10.0 mi South 9.2 mph - N/A   Mostly Cloudy
5:58 AM 45.1 °F 40.3 °F 45.1 °F 100% 29.59 in 10.0 mi South 9.2 mph - 0.01 in   Overcast
6:03 AM 44.6 °F 39.2 °F 44.6 °F 100% 29.57 in 10.0 mi South 10.4 mph - N/A Rain Light Rain
6:23 AM 44.6 °F 39.2 °F 44.6 °F 100% 29.56 in 10.0 mi South 10.4 mph - N/A   Overcast
6:29 AM 44.6 °F 38.4 °F 44.6 °F 100% 29.56 in 10.0 mi South 12.7 mph - N/A Rain Light Rain
6:45 AM 46.4 °F 41.1 °F 46.4 °F 100% 29.56 in 10.0 mi South 11.5 mph - N/A   Mostly Cloudy
6:48 AM 46.4 °F 41.1 °F 46.4 °F 100% 29.57 in 10.0 mi South 11.5 mph - N/A Rain Light Rain
6:58 AM 45.7 °F 38.8 °F 45.7 °F 100% 29.59 in 10.0 mi South 16.1 mph 21.9 mph 0.00 in Rain Light Rain
7:58 AM 46.2 °F 38.5 °F 43.3 °F 90% 29.60 in 10.0 mi SSW 20.7 mph 34.5 mph 0.01 in Rain Light Rain
8:09 AM 46.4 °F 39.2 °F 42.8 °F 87% 29.59 in 10.0 mi SSW 18.4 mph 29.9 mph N/A   Mostly Cloudy
8:11 AM 46.4 °F 39.2 °F 42.8 °F 87% 29.59 in 10.0 mi SSW 18.4 mph 28.8 mph N/A Rain Light Rain
8:29 AM 44.6 °F 38.1 °F 44.6 °F 100% 29.60 in 10.0 mi SSW 13.8 mph - N/A   Mostly Cloudy
8:53 AM 44.6 °F 36.9 °F 44.6 °F 100% 29.61 in 10.0 mi SSW 18.4 mph - N/A Rain Light Rain
8:58 AM 45.0 °F 36.9 °F 44.4 °F 98% 29.64 in 10.0 mi SSW 20.7 mph 26.5 mph 0.00 in Rain Light Rain
9:19 AM 44.6 °F 36.1 °F 44.6 °F 100% 29.61 in 10.0 mi SSW 21.9 mph 27.6 mph N/A   Clear
9:22 AM 44.6 °F 36.6 °F 44.6 °F 100% 29.62 in 10.0 mi SSW 19.6 mph 29.9 mph N/A Rain Light Rain
9:58 AM 45.7 °F 37.4 °F 45.7 °F 100% 29.67 in 10.0 mi SSW 23.0 mph 36.8 mph 0.00 in Rain Light Rain
10:22 AM 46.4 °F 40.1 °F 44.6 °F 93% 29.65 in 10.0 mi SSW 15.0 mph 27.6 mph N/A   Clear
10:25 AM 46.4 °F 39.2 °F 44.6 °F 93% 29.65 in 10.0 mi SSW 18.4 mph 24.2 mph N/A Rain Light Rain
10:27 AM 46.4 °F 39.2 °F 44.6 °F 93% 29.65 in 10.0 mi SSW 18.4 mph 24.2 mph N/A   Clear
10:31 AM 46.4 °F 39.2 °F 46.4 °F 100% 29.65 in 10.0 mi SSW 18.4 mph 24.2 mph N/A Rain Light Rain
10:58 AM 46.0 °F 38.5 °F 44.8 °F 95% 29.68 in 10.0 mi SW 19.6 mph 27.6 mph 0.00 in Rain Light Rain
11:06 AM 46.4 °F 38.5 °F 41.0 °F 81% 29.65 in 10.0 mi SW 21.9 mph 29.9 mph N/A   Scattered Clouds
11:07 AM 46.4 °F 38.3 °F 41.0 °F 81% 29.65 in 10.0 mi SW 23.0 mph 29.9 mph N/A Rain Light Rain
11:31 AM 46.4 °F 39.8 °F 42.8 °F 87% 29.65 in 10.0 mi SW 16.1 mph 31.1 mph N/A   Partly Cloudy
11:40 AM 46.4 °F 38.3 °F 41.0 °F 81% 29.65 in 10.0 mi SW 23.0 mph 29.9 mph N/A Rain Light Rain
11:58 AM 46.4 °F 38.1 °F 40.8 °F 81% 29.69 in 10.0 mi SW 24.2 mph 31.1 mph 0.00 in Rain Light Rain
12:38 PM 46.4 °F 38.5 °F 35.6 °F 66% 29.67 in 10.0 mi SW 21.9 mph 28.8 mph N/A   Clear
12:42 PM 46.4 °F 39.2 °F 33.8 °F 62% 29.67 in 10.0 mi SW 18.4 mph 28.8 mph N/A Rain Light Rain
12:52 PM 46.4 °F 38.7 °F 33.8 °F 62% 29.67 in 10.0 mi SW 20.7 mph 27.6 mph N/A   Clear
12:57 PM 46.4 °F 38.7 °F 33.8 °F 62% 29.67 in 10.0 mi SSW 20.7 mph 26.5 mph N/A Rain Light Rain
12:58 PM 46.4 °F 39.0 °F 34.3 °F 63% 29.70 in 10.0 mi SSW 19.6 mph 26.5 mph 0.00 in Rain Light Rain
1:07 PM 46.4 °F 38.5 °F 35.6 °F 66% 29.67 in 10.0 mi SW 21.9 mph 28.8 mph N/A   Clear
1:58 PM 46.6 °F - 32.2 °F 57% 29.71 in 10.0 mi SSW 20.7 mph - 0.00 in   Clear
2:13 PM 46.4 °F 39.2 °F 32.0 °F 57% 29.67 in 10.0 mi SW 18.4 mph 28.8 mph N/A Rain Light Rain
2:22 PM 46.4 °F 40.7 °F 32.0 °F 57% 29.67 in 10.0 mi SSW 12.7 mph - N/A   Clear
2:58 PM 43.7 °F 38.1 °F 36.0 °F 74% 29.72 in 10.0 mi SSW 10.4 mph - 0.00 in   Clear
3:58 PM 40.3 °F 36.3 °F 39.9 °F 99% 29.73 in 10.0 mi South 5.8 mph - N/A   Clear
4:58 PM 37.8 °F 32.5 °F 37.8 °F 100% 29.72 in 10.0 mi South 6.9 mph - N/A   Clear
5:58 PM 37.8 °F 31.8 °F 37.8 °F 100% 29.70 in 10.0 mi SE 8.1 mph - N/A   Clear
6:58 PM 38.3 °F 33.9 °F 38.3 °F 100% 29.68 in 10.0 mi East 5.8 mph - N/A   Clear
7:04 PM 37.4 °F 32.8 °F 37.4 °F 100% 29.65 in 10.0 mi ESE 5.8 mph - N/A   Clear
7:26 PM 37.4 °F 33.8 °F 37.4 °F 100% 29.63 in 10.0 mi SSE 4.6 mph - N/A   Mostly Cloudy
7:48 PM 41.0 °F 35.8 °F 41.0 °F 100% 29.63 in 10.0 mi SSE 8.1 mph - N/A   Mostly Cloudy
7:58 PM 40.6 °F 35.4 °F 40.6 °F 100% 29.66 in 10.0 mi SSE 8.1 mph - 0.00 in   Overcast
7:59 PM 41.0 °F 35.8 °F 41.0 °F 100% 29.63 in 10.0 mi SSE 8.1 mph - N/A   Overcast
8:25 PM 41.0 °F 37.1 °F 41.0 °F 100% 29.63 in 10.0 mi South 5.8 mph - N/A Rain Light Rain
8:58 PM 40.1 °F 36.1 °F 40.1 °F 100% 29.65 in 10.0 mi South 5.8 mph - 0.00 in Rain Light Rain
9:19 PM 39.2 °F - 39.2 °F 100% 29.61 in 10.0 mi ESE 2.3 mph - N/A   Overcast
9:58 PM 38.8 °F 32.6 °F 38.8 °F 100% 29.58 in 10.0 mi East 9.2 mph - 0.00 in   Clear
10:03 PM 39.2 °F 35.0 °F 39.2 °F 100% 29.55 in 10.0 mi East 5.8 mph - N/A   Clear
10:27 PM 39.2 °F 35.9 °F 39.2 °F 100% 29.55 in 10.0 mi SSE 4.6 mph - N/A   Clear
10:58 PM 39.0 °F 34.8 °F 39.0 °F 100% 29.58 in 10.0 mi South 5.8 mph - 0.00 in   Partly Cloudy
11:01 PM 39.2 °F 35.0 °F 39.2 °F 100% 29.55 in 10.0 mi SSE 5.8 mph - N/A   Scattered Clouds
11:58 PM 40.1 °F 35.3 °F 40.1 °F 100% 29.55 in 10.0 mi SSE 6.9 mph - 0.00 in Rain Light Rain